Time,TemperatureF,DewpointF,PressureIn,WindDirection,WindDirectionDegrees,WindSpeedMPH,WindSpeedGustMPH,Humidity,HourlyPrecipIn,Conditions,Clouds,dailyrainin,SolarRadiationWatts/m^2,SoftwareType,DateUTC
2013-04-13 00:00:00,36.6,34.5,29.76,North,0,0.0,0.0,92,0.00,CLR,,0.50,0.0,WeatherDisplay:10.37,2013-04-13 04:00:00,
2013-04-13 00:05:00,36.6,34.5,29.77,North,0,0.0,0.0,92,0.00,RA,,0.00,0.0,WeatherDisplay:10.37,2013-04-13 04:05:00,
2013-04-13 00:10:00,36.6,34.5,29.76,North,0,0.0,0.0,92,0.00,RA,,0.00,0.0,WeatherDisplay:10.37,2013-04-13 04:10:00,
2013-04-13 00:15:00,36.7,34.6,29.76,North,0,0.0,0.0,92,0.00,CLR,,0.00,0.0,WeatherDisplay:10.37,2013-04-13 04:15:00,
2013-04-13 00:20:00,36.6,34.5,29.76,North,0,0.0,0.0,92,0.00,CLR,,0.00,0.0,WeatherDisplay:10.37,2013-04-13 04:20:00,
2013-04-13 00:25:00,36.6,34.5,29.75,North,0,0.0,0.0,92,0.00,CLR,,0.00,0.0,WeatherDisplay:10.37,2013-04-13 04:25:00,
2013-04-13 00:30:00,36.6,34.5,29.75,North,0,0.0,0.0,92,0.00,CLR,,0.00,0.0,WeatherDisplay:10.37,2013-04-13 04:30:00,
2013-04-13 00:35:00,36.6,34.5,29.75,North,0,0.0,0.0,92,0.00,CLR,,0.00,0.0,WeatherDisplay:10.37,2013-04-13 04:35:00,
2013-04-13 00:40:00,36.6,34.5,29.76,North,0,0.0,0.0,92,0.00,CLR,,0.00,0.0,WeatherDisplay:10.37,2013-04-13 04:40:00,
2013-04-13 00:45:00,36.6,34.5,29.76,North,0,0.0,0.0,92,0.00,CLR,,0.00,0.0,WeatherDisplay:10.37,2013-04-13 04:45:00,
2013-04-13 00:50:00,36.5,34.1,29.75,North,0,0.0,0.0,91,0.00,CLR,,0.00,0.0,WeatherDisplay:10.37,2013-04-13 04:50:00,
2013-04-13 00:55:00,36.5,34.1,29.76,North,0,0.0,0.0,91,0.00,CLR,,0.00,0.0,WeatherDisplay:10.37,2013-04-13 04:55:00,
2013-04-13 01:00:00,36.5,34.1,29.76,North,0,0.0,0.0,91,0.00,CLR,,0.00,0.0,WeatherDisplay:10.37,2013-04-13 05:00:00,
2013-04-13 01:05:00,36.5,34.1,29.75,North,0,0.0,0.0,91,0.00,CLR,,0.00,0.0,WeatherDisplay:10.37,2013-04-13 05:05:00,
2013-04-13 01:10:00,36.4,34.3,29.75,North,0,0.0,0.0,92,0.00,CLR,,0.00,0.0,WeatherDisplay:10.37,2013-04-13 05:10:00,
2013-04-13 01:15:00,36.4,34.3,29.76,North,0,0.0,0.0,92,0.00,CLR,,0.00,0.0,WeatherDisplay:10.37,2013-04-13 05:15:00,
2013-04-13 01:20:00,36.4,34.3,29.75,North,0,0.0,0.0,92,0.00,CLR,,0.00,0.0,WeatherDisplay:10.37,2013-04-13 05:20:00,
2013-04-13 01:25:00,36.3,34.2,29.76,North,0,0.0,0.0,92,0.00,CLR,,0.00,0.0,WeatherDisplay:10.37,2013-04-13 05:25:00,
2013-04-13 01:30:00,36.3,34.2,29.76,North,0,0.0,0.0,92,0.00,CLR,,0.00,0.0,WeatherDisplay:10.37,2013-04-13 05:30:00,
2013-04-13 01:35:00,36.3,34.2,29.76,North,0,0.0,0.0,92,0.00,CLR,,0.00,0.0,WeatherDisplay:10.37,2013-04-13 05:35:00,
2013-04-13 01:40:00,36.3,34.2,29.75,North,0,0.0,0.0,92,0.00,CLR,,0.00,0.0,WeatherDisplay:10.37,2013-04-13 05:40:00,
2013-04-13 01:45:00,36.3,34.2,29.76,North,0,0.0,0.0,92,0.00,CLR,,0.00,0.0,WeatherDisplay:10.37,2013-04-13 05:45:00,
2013-04-13 01:50:00,36.3,34.2,29.76,North,0,0.0,0.0,92,0.00,CLR,,0.00,0.0,WeatherDisplay:10.37,2013-04-13 05:50:00,
2013-04-13 01:55:00,36.2,34.1,29.76,North,0,0.0,0.0,92,0.00,CLR,,0.00,0.0,WeatherDisplay:10.37,2013-04-13 05:55:00,
2013-04-13 02:00:00,36.2,34.1,29.75,North,0,0.0,0.0,92,0.00,CLR,,0.00,0.0,WeatherDisplay:10.37,2013-04-13 06:00:00,
2013-04-13 02:05:00,36.2,34.1,29.75,North,0,0.0,0.0,92,0.00,CLR,,0.00,0.0,WeatherDisplay:10.37,2013-04-13 06:05:00,
2013-04-13 02:10:00,36.1,34.0,29.76,North,0,0.0,0.0,92,0.00,CLR,,0.00,0.0,WeatherDisplay:10.37,2013-04-13 06:10:00,
2013-04-13 02:15:00,36.1,34.0,29.77,North,0,0.0,0.0,92,0.01,RA,,0.01,0.0,WeatherDisplay:10.37,2013-04-13 06:15:00,
2013-04-13 02:20:00,36.1,34.0,29.78,North,0,0.0,0.0,92,0.01,RA,,0.01,0.0,WeatherDisplay:10.37,2013-04-13 06:20:00,
2013-04-13 02:25:00,36.1,34.0,29.79,North,0,0.0,0.0,92,0.01,CLR,,0.01,0.0,WeatherDisplay:10.37,2013-04-13 06:25:00,
2013-04-13 02:30:00,36.0,33.9,29.80,North,0,0.0,0.0,92,0.01,CLR,,0.01,0.0,WeatherDisplay:10.37,2013-04-13 06:30:00,
2013-04-13 02:35:00,36.0,33.9,29.78,North,0,0.0,0.0,92,0.01,CLR,,0.01,0.0,WeatherDisplay:10.37,2013-04-13 06:35:00,
2013-04-13 02:40:00,36.0,33.9,29.77,North,0,0.0,0.0,92,0.01,CLR,,0.01,0.0,WeatherDisplay:10.37,2013-04-13 06:40:00,
2013-04-13 02:45:00,36.0,33.9,29.76,North,0,0.0,0.0,92,0.01,CLR,,0.01,0.0,WeatherDisplay:10.37,2013-04-13 06:45:00,
2013-04-13 02:51:00,35.9,33.8,29.75,North,0,0.0,0.0,92,0.01,CLR,,0.01,0.0,WeatherDisplay:10.37,2013-04-13 06:51:00,
2013-04-13 02:56:00,35.9,33.8,29.75,North,0,0.0,0.0,92,0.01,CLR,,0.01,0.0,WeatherDisplay:10.37,2013-04-13 06:56:00,
2013-04-13 03:02:00,35.9,33.8,29.74,North,0,0.0,0.0,92,0.01,CLR,,0.01,0.0,WeatherDisplay:10.37,2013-04-13 07:02:00,
2013-04-13 03:07:00,35.8,33.7,29.71,North,0,0.0,0.0,92,0.01,CLR,,0.02,0.0,WeatherDisplay:10.37,2013-04-13 07:07:00,
2013-04-13 03:12:00,35.8,33.7,29.72,North,0,0.0,0.0,92,0.02,RA,,0.02,0.0,WeatherDisplay:10.37,2013-04-13 07:12:00,
2013-04-13 03:17:00,35.8,33.7,29.73,North,0,0.0,0.0,92,0.01,RA,,0.02,0.0,WeatherDisplay:10.37,2013-04-13 07:17:00,
2013-04-13 03:22:00,35.7,33.6,29.72,North,0,0.0,0.0,92,0.01,CLR,,0.02,0.0,WeatherDisplay:10.37,2013-04-13 07:22:00,
2013-04-13 03:27:00,35.7,33.6,29.72,North,0,0.0,0.0,92,0.01,CLR,,0.02,0.0,WeatherDisplay:10.37,2013-04-13 07:27:00,
2013-04-13 03:32:00,35.7,33.6,29.72,North,0,0.0,0.0,92,0.02,RA,,0.03,0.0,WeatherDisplay:10.37,2013-04-13 07:32:00,
2013-04-13 03:37:00,35.7,33.6,29.72,North,0,0.0,0.0,92,0.02,RA,,0.03,0.0,WeatherDisplay:10.37,2013-04-13 07:37:00,
2013-04-13 03:43:00,35.7,33.6,29.74,North,0,0.0,0.0,92,0.02,CLR,,0.03,0.0,WeatherDisplay:10.37,2013-04-13 07:43:00,
2013-04-13 03:48:00,35.6,33.5,29.74,North,0,0.0,0.0,92,0.02,CLR,,0.03,0.0,WeatherDisplay:10.37,2013-04-13 07:48:00,
2013-04-13 03:53:00,35.5,33.4,29.74,North,0,0.0,0.0,92,0.02,CLR,,0.03,0.0,WeatherDisplay:10.37,2013-04-13 07:53:00,
2013-04-13 03:58:00,35.5,33.4,29.74,North,0,0.0,0.0,92,0.02,CLR,,0.03,0.0,WeatherDisplay:10.37,2013-04-13 07:58:00,
2013-04-13 04:03:00,35.5,33.4,29.74,North,0,0.0,0.0,92,0.02,CLR,,0.03,0.0,WeatherDisplay:10.37,2013-04-13 08:03:00,
2013-04-13 04:08:00,35.5,33.4,29.74,North,0,0.0,0.0,92,0.01,CLR,,0.03,0.0,WeatherDisplay:10.37,2013-04-13 08:08:00,
2013-04-13 04:13:00,35.5,33.4,29.74,North,0,0.0,0.0,92,0.01,CLR,,0.03,0.0,WeatherDisplay:10.37,2013-04-13 08:13:00,
2013-04-13 04:18:00,35.4,33.3,29.74,North,0,0.0,0.0,92,0.01,CLR,,0.03,0.0,WeatherDisplay:10.37,2013-04-13 08:18:00,
2013-04-13 04:23:00,35.4,33.3,29.74,North,0,0.0,0.0,92,0.01,CLR,,0.03,0.0,WeatherDisplay:10.37,2013-04-13 08:23:00,
2013-04-13 04:28:00,35.4,33.3,29.75,North,0,0.0,0.0,92,0.01,CLR,,0.03,0.0,WeatherDisplay:10.37,2013-04-13 08:28:00,
2013-04-13 04:33:00,35.4,33.3,29.75,North,0,0.0,0.0,92,0.00,CLR,,0.03,0.0,WeatherDisplay:10.37,2013-04-13 08:33:00,
2013-04-13 04:39:00,35.4,33.3,29.75,North,0,0.0,0.0,92,0.00,CLR,,0.03,0.0,WeatherDisplay:10.37,2013-04-13 08:39:00,
2013-04-13 04:44:00,35.4,33.3,29.75,North,0,0.0,0.0,92,0.00,CLR,,0.03,0.0,WeatherDisplay:10.37,2013-04-13 08:44:00,
2013-04-13 04:49:00,35.3,33.2,29.76,North,0,0.0,0.0,92,0.00,CLR,,0.03,0.0,WeatherDisplay:10.37,2013-04-13 08:49:00,
2013-04-13 04:54:00,35.3,33.2,29.76,North,0,0.0,0.0,92,0.00,CLR,,0.03,0.0,WeatherDisplay:10.37,2013-04-13 08:54:00,
2013-04-13 04:59:00,35.3,33.2,29.76,North,0,0.0,0.0,92,0.00,CLR,,0.03,0.0,WeatherDisplay:10.37,2013-04-13 08:59:00,
2013-04-13 05:05:00,35.3,33.2,29.76,North,0,0.0,0.0,92,0.00,CLR,,0.03,0.0,WeatherDisplay:10.37,2013-04-13 09:05:00,
2013-04-13 05:10:00,35.3,33.2,29.76,North,0,0.0,0.0,92,0.00,CLR,,0.03,0.0,WeatherDisplay:10.37,2013-04-13 09:10:00,
2013-04-13 05:15:00,35.3,33.2,29.76,North,0,0.0,0.0,92,0.00,CLR,,0.03,0.0,WeatherDisplay:10.37,2013-04-13 09:15:00,
2013-04-13 05:20:00,35.3,33.2,29.76,North,0,0.0,0.0,92,0.00,CLR,,0.03,0.0,WeatherDisplay:10.37,2013-04-13 09:20:00,
2013-04-13 05:26:00,35.2,33.1,29.76,North,0,0.0,0.0,92,0.00,CLR,,0.03,0.0,WeatherDisplay:10.37,2013-04-13 09:26:00,
2013-04-13 05:31:00,35.2,33.1,29.76,North,0,0.0,0.0,92,0.00,CLR,,0.03,0.0,WeatherDisplay:10.37,2013-04-13 09:31:00,
2013-04-13 05:36:00,35.2,33.1,29.76,North,0,0.0,0.0,92,0.00,CLR,,0.03,0.0,WeatherDisplay:10.37,2013-04-13 09:36:00,
2013-04-13 05:41:00,35.1,33.0,29.77,North,0,0.0,0.0,92,0.00,CLR,,0.03,0.0,WeatherDisplay:10.37,2013-04-13 09:41:00,
2013-04-13 05:46:00,35.0,32.9,29.77,North,0,0.0,0.0,92,0.00,CLR,,0.03,0.0,WeatherDisplay:10.37,2013-04-13 09:46:00,
2013-04-13 05:51:00,35.0,32.9,29.77,North,0,0.0,0.0,92,0.00,CLR,,0.03,0.0,WeatherDisplay:10.37,2013-04-13 09:51:00,
2013-04-13 05:56:00,34.9,32.8,29.77,North,0,0.0,0.0,92,0.00,CLR,,0.03,0.0,WeatherDisplay:10.37,2013-04-13 09:56:00,
2013-04-13 06:02:00,34.8,32.7,29.77,North,0,0.0,0.0,92,0.00,OVC,,0.03,0.0,WeatherDisplay:10.37,2013-04-13 10:02:00,
2013-04-13 06:07:00,34.7,32.3,29.77,North,0,0.0,0.0,91,0.00,OVC,,0.03,0.0,WeatherDisplay:10.37,2013-04-13 10:07:00,
2013-04-13 06:12:00,34.6,32.2,29.78,North,0,0.0,0.0,91,0.00,OVC,,0.03,0.0,WeatherDisplay:10.37,2013-04-13 10:12:00,
2013-04-13 06:17:00,34.5,32.1,29.78,North,0,0.0,0.0,91,0.00,OVC,,0.03,0.0,WeatherDisplay:10.37,2013-04-13 10:17:00,
2013-04-13 06:22:00,34.4,32.0,29.78,North,0,0.0,0.0,91,0.00,OVC,,0.03,0.0,WeatherDisplay:10.37,2013-04-13 10:22:00,
2013-04-13 06:28:00,34.5,32.1,29.78,North,0,0.0,0.0,91,0.00,OVC,,0.03,0.0,WeatherDisplay:10.37,2013-04-13 10:28:00,
2013-04-13 06:34:00,34.4,32.0,29.78,North,0,0.0,0.0,91,0.00,BKN,,0.03,7.0,WeatherDisplay:10.37,2013-04-13 10:34:00,
2013-04-13 06:39:00,34.4,32.3,29.79,North,0,0.0,0.0,92,0.00,BKN,,0.03,9.0,WeatherDisplay:10.37,2013-04-13 10:39:00,
2013-04-13 06:44:00,34.3,32.2,29.80,North,0,0.0,0.0,92,0.00,BKN,,0.03,11.0,WeatherDisplay:10.37,2013-04-13 10:44:00,
2013-04-13 06:49:00,34.2,32.1,29.80,North,0,0.0,0.0,92,0.00,BKN,,0.03,11.0,WeatherDisplay:10.37,2013-04-13 10:49:00,
2013-04-13 06:54:00,34.2,32.1,29.81,North,0,0.0,0.0,92,0.00,BKN,,0.03,14.0,WeatherDisplay:10.37,2013-04-13 10:54:00,
2013-04-13 06:59:00,34.1,32.0,29.81,North,0,0.0,0.0,92,0.00,BKN,,0.03,16.0,WeatherDisplay:10.37,2013-04-13 10:59:00,
2013-04-13 07:04:00,34.1,32.0,29.81,North,0,0.0,0.0,92,0.00,BKN,,0.03,14.0,WeatherDisplay:10.37,2013-04-13 11:04:00,
2013-04-13 07:12:00,34.0,31.9,29.81,North,0,0.0,0.0,92,0.00,BKN,,0.03,19.0,WeatherDisplay:10.37,2013-04-13 11:12:00,
2013-04-13 07:17:00,34.0,31.6,29.81,North,0,0.0,0.0,91,0.00,BKN,,0.03,19.0,WeatherDisplay:10.37,2013-04-13 11:17:00,
2013-04-13 07:22:00,34.0,31.6,29.81,North,0,0.0,0.0,91,0.00,BKN,,0.03,26.0,WeatherDisplay:10.37,2013-04-13 11:22:00,
2013-04-13 07:27:00,34.0,31.9,29.80,North,0,0.0,0.0,92,0.00,BKN,,0.03,26.0,WeatherDisplay:10.37,2013-04-13 11:27:00,
2013-04-13 07:32:00,34.1,32.0,29.80,North,0,0.0,0.0,92,0.00,BKN,,0.03,28.0,WeatherDisplay:10.37,2013-04-13 11:32:00,
2013-04-13 07:38:00,34.1,32.0,29.81,North,0,0.0,0.0,92,0.00,BKN,,0.03,26.0,WeatherDisplay:10.37,2013-04-13 11:38:00,
2013-04-13 07:43:00,34.1,32.0,29.81,North,0,0.0,0.0,92,0.00,BKN,,0.03,30.0,WeatherDisplay:10.37,2013-04-13 11:43:00,
2013-04-13 07:48:00,34.1,32.0,29.81,North,0,0.0,0.0,92,0.00,BKN,,0.03,40.0,WeatherDisplay:10.37,2013-04-13 11:48:00,
2013-04-13 07:54:00,34.1,32.0,29.81,North,0,0.0,0.0,92,0.00,BKN,,0.03,60.0,WeatherDisplay:10.37,2013-04-13 11:54:00,
2013-04-13 08:00:00,34.2,32.1,29.81,North,0,0.0,0.0,92,0.00,BKN,,0.03,84.0,WeatherDisplay:10.37,2013-04-13 12:00:00,
2013-04-13 08:06:00,34.3,32.2,29.81,North,0,0.0,0.0,92,0.00,BKN,,0.03,60.0,WeatherDisplay:10.37,2013-04-13 12:06:00,
2013-04-13 08:13:00,34.4,32.0,29.82,North,0,0.0,0.0,91,0.00,BKN,,0.03,51.0,WeatherDisplay:10.37,2013-04-13 12:13:00,
2013-04-13 08:18:00,34.4,32.0,29.82,North,0,0.0,0.0,91,0.00,BKN,,0.03,47.0,WeatherDisplay:10.37,2013-04-13 12:18:00,
2013-04-13 08:23:00,34.4,32.0,29.81,North,0,0.0,0.0,91,0.00,BKN,,0.03,63.0,WeatherDisplay:10.37,2013-04-13 12:23:00,
2013-04-13 08:28:00,34.4,32.0,29.81,North,0,0.0,0.0,91,0.00,BKN,,0.03,70.0,WeatherDisplay:10.37,2013-04-13 12:28:00,
2013-04-13 08:33:00,34.5,32.1,29.81,North,0,0.0,0.0,91,0.00,BKN,,0.03,77.0,WeatherDisplay:10.37,2013-04-13 12:33:00,
2013-04-13 08:38:00,34.5,32.1,29.82,North,0,0.0,0.0,91,0.00,BKN,,0.03,60.0,WeatherDisplay:10.37,2013-04-13 12:38:00,
2013-04-13 08:43:00,34.6,32.2,29.82,North,0,0.0,0.0,91,0.00,BKN,,0.03,63.0,WeatherDisplay:10.37,2013-04-13 12:43:00,
2013-04-13 08:48:00,34.7,32.3,29.82,North,0,0.0,0.0,91,0.00,BKN,,0.03,60.0,WeatherDisplay:10.37,2013-04-13 12:48:00,
2013-04-13 08:53:00,34.8,32.4,29.82,North,0,0.0,0.0,91,0.00,BKN,,0.03,90.0,WeatherDisplay:10.37,2013-04-13 12:53:00,
2013-04-13 08:58:00,34.9,32.5,29.82,North,0,0.0,0.0,91,0.00,BKN,,0.03,86.0,WeatherDisplay:10.37,2013-04-13 12:58:00,
2013-04-13 09:03:00,35.0,32.6,29.82,North,0,0.0,0.0,91,0.00,BKN,,0.03,120.0,WeatherDisplay:10.37,2013-04-13 13:03:00,
2013-04-13 09:08:00,35.1,32.7,29.82,North,0,0.0,0.0,91,0.00,BKN,,0.03,102.0,WeatherDisplay:10.37,2013-04-13 13:08:00,
2013-04-13 09:13:00,35.3,32.9,29.82,North,0,0.0,0.0,91,0.00,BKN,,0.03,107.0,WeatherDisplay:10.37,2013-04-13 13:13:00,
2013-04-13 09:20:00,35.4,33.0,29.82,North,0,0.0,0.0,91,0.00,BKN,,0.03,125.0,WeatherDisplay:10.37,2013-04-13 13:20:00,
2013-04-13 09:25:00,35.5,33.1,29.82,North,0,0.0,0.0,91,0.00,BKN,,0.03,213.0,WeatherDisplay:10.37,2013-04-13 13:25:00,
2013-04-13 09:30:00,35.7,33.3,29.82,North,0,0.0,0.0,91,0.00,BKN,,0.03,176.0,WeatherDisplay:10.37,2013-04-13 13:30:00,
2013-04-13 09:36:00,35.9,33.5,29.83,North,0,0.0,0.0,91,0.00,BKN,,0.03,156.0,WeatherDisplay:10.37,2013-04-13 13:36:00,
2013-04-13 09:41:00,36.0,33.6,29.83,North,0,0.0,0.0,91,0.00,BKN,,0.03,149.0,WeatherDisplay:10.37,2013-04-13 13:41:00,
2013-04-13 09:47:00,36.0,33.6,29.83,North,0,0.0,0.0,91,0.00,BKN,,0.03,146.0,WeatherDisplay:10.37,2013-04-13 13:47:00,
2013-04-13 09:52:00,36.0,33.6,29.83,North,0,0.0,0.0,91,0.00,BKN,,0.03,153.0,WeatherDisplay:10.37,2013-04-13 13:52:00,
2013-04-13 09:57:00,36.2,33.8,29.83,North,0,0.0,0.0,91,0.00,BKN,,0.03,174.0,WeatherDisplay:10.37,2013-04-13 13:57:00,
2013-04-13 10:02:00,36.4,34.0,29.83,North,0,0.0,0.0,91,0.00,BKN,,0.03,183.0,WeatherDisplay:10.37,2013-04-13 14:02:00,
2013-04-13 10:07:00,36.6,34.2,29.83,North,0,0.0,0.0,91,0.00,BKN,,0.03,213.0,WeatherDisplay:10.37,2013-04-13 14:07:00,
2013-04-13 10:13:00,36.9,34.5,29.83,North,0,0.0,0.0,91,0.00,BKN,,0.03,216.0,WeatherDisplay:10.37,2013-04-13 14:13:00,
2013-04-13 10:18:00,37.0,34.6,29.83,North,0,0.0,0.0,91,0.00,BKN,,0.03,241.0,WeatherDisplay:10.37,2013-04-13 14:18:00,
2013-04-13 10:23:00,37.3,34.6,29.83,North,0,0.0,0.0,90,0.00,BKN,,0.03,295.0,WeatherDisplay:10.37,2013-04-13 14:23:00,
2013-04-13 10:29:00,37.6,34.9,29.83,North,0,0.0,0.0,90,0.00,SCT,,0.03,380.0,WeatherDisplay:10.37,2013-04-13 14:29:00,
2013-04-13 10:34:00,38.2,35.5,29.83,North,0,0.0,0.0,90,0.00,SCT,,0.03,302.0,WeatherDisplay:10.37,2013-04-13 14:34:00,
2013-04-13 10:39:00,38.5,35.8,29.83,North,0,0.0,0.0,90,0.00,BKN,,0.03,244.0,WeatherDisplay:10.37,2013-04-13 14:39:00,
2013-04-13 10:45:00,38.8,36.1,29.83,North,0,0.0,0.0,90,0.00,BKN,,0.03,264.0,WeatherDisplay:10.37,2013-04-13 14:45:00,
2013-04-13 10:50:00,39.1,36.1,29.83,North,0,0.0,0.0,89,0.00,BKN,,0.03,343.0,WeatherDisplay:10.37,2013-04-13 14:50:00,
2013-04-13 10:55:00,39.6,36.6,29.83,North,0,0.0,0.0,89,0.00,BKN,,0.03,309.0,WeatherDisplay:10.37,2013-04-13 14:55:00,
2013-04-13 11:00:00,40.9,37.6,29.83,North,0,0.0,0.0,88,0.00,SCT,,0.03,610.0,WeatherDisplay:10.37,2013-04-13 15:00:00,
2013-04-13 11:05:00,42.3,38.7,29.82,North,0,0.0,0.0,87,0.00,FEW,,0.03,652.0,WeatherDisplay:10.37,2013-04-13 15:05:00,
2013-04-13 11:11:00,42.6,38.4,29.82,North,0,0.0,0.0,85,0.00,FEW,,0.03,819.0,WeatherDisplay:10.37,2013-04-13 15:11:00,
2013-04-13 11:16:00,43.1,38.9,29.82,North,0,0.0,0.0,85,0.00,CLR,,0.03,816.0,WeatherDisplay:10.37,2013-04-13 15:16:00,
2013-04-13 11:21:00,43.7,39.2,29.83,North,0,0.0,0.0,84,0.00,CLR,,0.03,814.0,WeatherDisplay:10.37,2013-04-13 15:21:00,
2013-04-13 11:26:00,44.4,39.6,29.82,North,0,0.0,0.0,83,0.00,SCT,,0.03,427.0,WeatherDisplay:10.37,2013-04-13 15:26:00,
2013-04-13 11:32:00,44.4,39.2,29.83,North,0,0.0,0.0,82,0.00,SCT,,0.03,564.0,WeatherDisplay:10.37,2013-04-13 15:32:00,
2013-04-13 11:37:00,45.0,39.5,29.82,North,0,0.0,0.0,81,0.00,FEW,,0.03,738.0,WeatherDisplay:10.37,2013-04-13 15:37:00,
2013-04-13 11:43:00,46.3,40.5,29.82,North,0,0.0,0.0,80,0.00,FEW,,0.03,747.0,WeatherDisplay:10.37,2013-04-13 15:43:00,
2013-04-13 11:48:00,47.6,41.1,29.81,North,0,0.0,0.0,78,0.00,CLR,,0.03,933.0,WeatherDisplay:10.37,2013-04-13 15:48:00,
2013-04-13 11:53:00,48.4,41.2,29.81,North,0,0.0,0.0,76,0.00,CLR,,0.03,925.0,WeatherDisplay:10.37,2013-04-13 15:53:00,
2013-04-13 11:58:00,49.2,42.0,29.81,North,0,0.0,0.0,76,0.00,CLR,,0.03,962.0,WeatherDisplay:10.37,2013-04-13 15:58:00,
2013-04-13 12:03:00,50.5,41.8,29.81,North,0,0.0,0.0,72,0.00,CLR,,0.03,1002.0,WeatherDisplay:10.37,2013-04-13 16:03:00,
2013-04-13 12:08:00,51.2,42.1,29.81,North,0,0.0,0.0,71,0.00,CLR,,0.03,1097.0,WeatherDisplay:10.37,2013-04-13 16:08:00,
2013-04-13 12:13:00,51.5,42.4,29.81,North,0,0.0,0.0,71,0.00,FEW,,0.03,443.0,WeatherDisplay:10.37,2013-04-13 16:13:00,
2013-04-13 12:18:00,50.4,41.3,29.81,North,0,0.0,0.0,71,0.00,BKN,,0.03,568.0,WeatherDisplay:10.37,2013-04-13 16:18:00,
2013-04-13 12:23:00,50.1,40.7,29.81,North,0,0.0,0.0,70,0.00,SCT,,0.03,459.0,WeatherDisplay:10.37,2013-04-13 16:23:00,
2013-04-13 12:28:00,50.5,41.1,29.81,North,0,0.0,0.0,70,0.00,BKN,,0.03,410.0,WeatherDisplay:10.37,2013-04-13 16:28:00,
2013-04-13 12:33:00,50.4,41.0,29.81,North,0,0.0,0.0,70,0.00,BKN,,0.03,385.0,WeatherDisplay:10.37,2013-04-13 16:33:00,
2013-04-13 12:38:00,50.4,40.2,29.80,North,0,0.0,0.0,68,0.00,BKN,,0.03,371.0,WeatherDisplay:10.37,2013-04-13 16:38:00,
2013-04-13 12:43:00,50.4,40.6,29.80,North,0,0.0,0.0,69,0.00,BKN,,0.03,476.0,WeatherDisplay:10.37,2013-04-13 16:43:00,
2013-04-13 12:48:00,50.9,41.1,29.80,North,0,0.0,0.0,69,0.00,SCT,,0.03,573.0,WeatherDisplay:10.37,2013-04-13 16:48:00,
2013-04-13 12:53:00,51.5,40.9,29.80,North,0,0.0,0.0,67,0.00,SCT,,0.03,578.0,WeatherDisplay:10.37,2013-04-13 16:53:00,
2013-04-13 12:58:00,52.1,41.1,29.80,North,0,0.0,0.0,66,0.00,SCT,,0.03,388.0,WeatherDisplay:10.37,2013-04-13 16:58:00,
2013-04-13 13:04:00,52.0,40.6,29.80,North,0,0.0,0.0,65,0.00,BKN,,0.03,320.0,WeatherDisplay:10.37,2013-04-13 17:04:00,
2013-04-13 13:09:00,52.1,40.7,29.79,North,0,0.0,0.0,65,0.00,BKN,,0.03,476.0,WeatherDisplay:10.37,2013-04-13 17:09:00,
2013-04-13 13:14:00,52.4,39.8,29.79,North,0,0.0,0.0,62,0.00,BKN,,0.03,348.0,WeatherDisplay:10.37,2013-04-13 17:14:00,
2013-04-13 13:19:00,52.2,38.7,29.79,North,0,0.0,0.0,60,0.00,BKN,,0.03,515.0,WeatherDisplay:10.37,2013-04-13 17:19:00,
2013-04-13 13:25:00,52.2,38.3,29.79,North,0,0.0,0.0,59,0.00,SCT,,0.03,628.0,WeatherDisplay:10.37,2013-04-13 17:25:00,
2013-04-13 13:30:00,52.7,40.0,29.79,North,0,0.0,0.0,62,0.00,SCT,,0.03,515.0,WeatherDisplay:10.37,2013-04-13 17:30:00,
2013-04-13 13:35:00,53.1,39.1,29.79,North,0,0.0,0.0,59,0.00,SCT,,0.03,640.0,WeatherDisplay:10.37,2013-04-13 17:35:00,
2013-04-13 13:40:00,53.3,39.8,29.79,North,0,0.0,0.0,60,0.00,SCT,,0.03,606.0,WeatherDisplay:10.37,2013-04-13 17:40:00,
2013-04-13 13:45:00,53.0,38.2,29.79,North,0,0.0,0.0,57,0.00,SCT,,0.03,464.0,WeatherDisplay:10.37,2013-04-13 17:45:00,
2013-04-13 13:50:00,52.8,39.3,29.78,North,0,0.0,0.0,60,0.00,BKN,,0.03,366.0,WeatherDisplay:10.37,2013-04-13 17:50:00,
2013-04-13 13:55:00,52.8,39.7,29.78,North,0,0.0,0.0,61,0.00,BKN,,0.03,330.0,WeatherDisplay:10.37,2013-04-13 17:55:00,
2013-04-13 14:00:00,52.7,38.8,29.78,North,0,0.0,0.0,59,0.00,BKN,,0.03,345.0,WeatherDisplay:10.37,2013-04-13 18:00:00,
2013-04-13 14:05:00,52.6,38.7,29.79,North,0,0.0,0.0,59,0.00,BKN,,0.03,209.0,WeatherDisplay:10.37,2013-04-13 18:05:00,
2013-04-13 14:10:00,52.7,39.2,29.78,North,0,0.0,0.0,60,0.00,BKN,,0.03,234.0,WeatherDisplay:10.37,2013-04-13 18:10:00,
2013-04-13 14:15:00,52.5,38.6,29.78,North,0,0.0,0.0,59,0.00,BKN,,0.03,388.0,WeatherDisplay:10.37,2013-04-13 18:15:00,
2013-04-13 14:20:00,52.4,37.6,29.78,North,0,0.0,0.0,57,0.00,BKN,,0.03,292.0,WeatherDisplay:10.37,2013-04-13 18:20:00,
2013-04-13 14:25:00,52.4,37.6,29.78,North,0,0.0,0.0,57,0.00,BKN,,0.03,350.0,WeatherDisplay:10.37,2013-04-13 18:25:00,
2013-04-13 14:27:00,52.4,38.0,29.78,North,0,0.0,0.0,58,0.00,BKN,,0.03,281.0,WeatherDisplay:10.37,2013-04-13 18:27:00,
2013-04-13 14:28:00,52.5,38.1,29.78,North,0,0.0,0.0,58,0.00,BKN,,0.03,281.0,WeatherDisplay:10.37,2013-04-13 18:28:00,
2013-04-13 14:33:00,52.5,37.7,29.78,North,0,0.0,0.0,57,0.00,BKN,,0.03,227.0,WeatherDisplay:10.37,2013-04-13 18:33:00,
2013-04-13 14:38:00,52.4,38.0,29.79,North,0,0.0,0.0,58,0.00,BKN,,0.03,190.0,WeatherDisplay:10.37,2013-04-13 18:38:00,
2013-04-13 14:43:00,52.4,38.0,29.79,North,0,0.0,0.0,58,0.00,BKN,,0.03,213.0,WeatherDisplay:10.37,2013-04-13 18:43:00,
2013-04-13 14:48:00,52.3,38.4,29.79,North,0,0.0,0.0,59,0.00,BKN,,0.03,276.0,WeatherDisplay:10.37,2013-04-13 18:48:00,
2013-04-13 14:53:00,52.2,37.9,29.79,North,0,0.0,0.0,58,0.00,BKN,,0.03,236.0,WeatherDisplay:10.37,2013-04-13 18:53:00,
2013-04-13 14:58:00,52.2,37.9,29.79,North,0,0.0,0.0,58,0.00,BKN,,0.03,206.0,WeatherDisplay:10.37,2013-04-13 18:58:00,
2013-04-13 15:03:00,52.1,38.2,29.79,North,0,0.0,0.0,59,0.00,BKN,,0.03,197.0,WeatherDisplay:10.37,2013-04-13 19:03:00,
2013-04-13 15:08:00,52.1,38.2,29.79,North,0,0.0,0.0,59,0.00,BKN,,0.03,197.0,WeatherDisplay:10.37,2013-04-13 19:08:00,
2013-04-13 15:13:00,52.2,37.9,29.79,North,0,0.0,0.0,58,0.00,BKN,,0.03,204.0,WeatherDisplay:10.37,2013-04-13 19:13:00,
2013-04-13 15:18:00,52.2,38.3,29.79,North,0,0.0,0.0,59,0.00,BKN,,0.03,179.0,WeatherDisplay:10.37,2013-04-13 19:18:00,
2013-04-13 15:23:00,52.2,37.9,29.78,North,0,0.0,0.0,58,0.00,BKN,,0.03,188.0,WeatherDisplay:10.37,2013-04-13 19:23:00,
2013-04-13 15:28:00,52.2,37.9,29.78,North,0,0.0,0.0,58,0.00,BKN,,0.03,183.0,WeatherDisplay:10.37,2013-04-13 19:28:00,
2013-04-13 15:33:00,52.1,37.3,29.79,North,0,0.0,0.0,57,0.00,BKN,,0.03,167.0,WeatherDisplay:10.37,2013-04-13 19:33:00,
2013-04-13 15:38:00,52.1,37.8,29.79,North,0,0.0,0.0,58,0.00,BKN,,0.03,153.0,WeatherDisplay:10.37,2013-04-13 19:38:00,
2013-04-13 15:43:00,52.1,38.6,29.79,North,0,0.0,0.0,60,0.00,BKN,,0.03,134.0,WeatherDisplay:10.37,2013-04-13 19:43:00,
2013-04-13 15:48:00,52.0,37.7,29.79,North,0,0.0,0.0,58,0.00,BKN,,0.03,134.0,WeatherDisplay:10.37,2013-04-13 19:48:00,
2013-04-13 15:53:00,51.8,37.5,29.79,North,0,0.0,0.0,58,0.00,BKN,,0.03,139.0,WeatherDisplay:10.37,2013-04-13 19:53:00,
2013-04-13 15:58:00,51.7,37.8,29.78,North,0,0.0,0.0,59,0.00,BKN,,0.03,153.0,WeatherDisplay:10.37,2013-04-13 19:58:00,
2013-04-13 16:03:00,51.8,38.3,29.78,North,0,0.0,0.0,60,0.00,BKN,,0.03,171.0,WeatherDisplay:10.37,2013-04-13 20:03:00,
2013-04-13 16:08:00,52.0,38.1,29.78,North,0,0.0,0.0,59,0.00,SCT,,0.03,670.0,WeatherDisplay:10.37,2013-04-13 20:08:00,
2013-04-13 16:13:00,52.3,38.4,29.78,North,0,0.0,0.0,59,0.00,FEW,,0.03,176.0,WeatherDisplay:10.37,2013-04-13 20:13:00,
2013-04-13 16:18:00,52.5,38.1,29.79,North,0,0.0,0.0,58,0.00,BKN,,0.03,216.0,WeatherDisplay:10.37,2013-04-13 20:18:00,
2013-04-13 16:23:00,52.2,37.4,29.79,North,0,0.0,0.0,57,0.00,FEW,,0.03,677.0,WeatherDisplay:10.37,2013-04-13 20:23:00,
2013-04-13 16:28:00,53.0,38.6,29.79,North,0,0.0,0.0,58,0.00,CLR,,0.03,466.0,WeatherDisplay:10.37,2013-04-13 20:28:00,
2013-04-13 16:33:00,53.3,38.4,29.80,North,0,0.0,0.0,57,0.00,BKN,,0.03,165.0,WeatherDisplay:10.37,2013-04-13 20:33:00,
2013-04-13 16:38:00,53.4,38.1,29.80,North,0,0.0,0.0,56,0.00,BKN,,0.03,144.0,WeatherDisplay:10.37,2013-04-13 20:38:00,
2013-04-13 16:43:00,53.5,38.6,29.80,North,0,0.0,0.0,57,0.00,BKN,,0.03,142.0,WeatherDisplay:10.37,2013-04-13 20:43:00,
2013-04-13 16:48:00,53.4,38.1,29.80,North,0,0.0,0.0,56,0.00,BKN,,0.03,134.0,WeatherDisplay:10.37,2013-04-13 20:48:00,
2013-04-13 16:53:00,53.2,37.4,29.80,North,0,0.0,0.0,55,0.00,BKN,,0.03,137.0,WeatherDisplay:10.37,2013-04-13 20:53:00,
2013-04-13 16:58:00,53.1,37.8,29.80,North,0,0.0,0.0,56,0.00,BKN,,0.03,149.0,WeatherDisplay:10.37,2013-04-13 20:58:00,
2013-04-13 17:03:00,53.0,37.3,29.80,North,0,0.0,0.0,55,0.00,BKN,,0.03,148.0,WeatherDisplay:10.37,2013-04-13 21:03:00,
2013-04-13 17:08:00,53.0,37.7,29.80,North,0,0.0,0.0,56,0.00,BKN,,0.03,139.0,WeatherDisplay:10.37,2013-04-13 21:08:00,
2013-04-13 17:13:00,53.0,37.7,29.81,North,0,0.0,0.0,56,0.00,BKN,,0.03,127.0,WeatherDisplay:10.37,2013-04-13 21:13:00,
2013-04-13 17:18:00,52.9,37.6,29.81,North,0,0.0,0.0,56,0.00,BKN,,0.03,100.0,WeatherDisplay:10.37,2013-04-13 21:18:00,
2013-04-13 17:23:00,52.8,37.5,29.81,North,0,0.0,0.0,56,0.00,BKN,,0.03,86.0,WeatherDisplay:10.37,2013-04-13 21:23:00,
2013-04-13 17:28:00,52.6,37.3,29.81,North,0,0.0,0.0,56,0.00,BKN,,0.03,74.0,WeatherDisplay:10.37,2013-04-13 21:28:00,
2013-04-13 17:33:00,52.6,37.8,29.81,North,0,0.0,0.0,57,0.00,BKN,,0.03,69.0,WeatherDisplay:10.37,2013-04-13 21:33:00,
2013-04-13 17:38:00,52.4,37.6,29.81,North,0,0.0,0.0,57,0.00,BKN,,0.03,60.0,WeatherDisplay:10.37,2013-04-13 21:38:00,
2013-04-13 17:44:00,52.3,37.1,29.81,North,0,0.0,0.0,56,0.00,BKN,,0.03,53.0,WeatherDisplay:10.37,2013-04-13 21:44:00,
2013-04-13 17:49:00,52.3,38.4,29.81,North,0,0.0,0.0,59,0.00,BKN,,0.03,49.0,WeatherDisplay:10.37,2013-04-13 21:49:00,
2013-04-13 17:54:00,52.2,37.9,29.81,North,0,0.0,0.0,58,0.00,BKN,,0.03,40.0,WeatherDisplay:10.37,2013-04-13 21:54:00,
2013-04-13 17:59:00,52.1,38.2,29.82,North,0,0.0,0.0,59,0.00,BKN,,0.03,35.0,WeatherDisplay:10.37,2013-04-13 21:59:00,
2013-04-13 18:04:00,52.0,37.7,29.82,North,0,0.0,0.0,58,0.00,BKN,,0.03,37.0,WeatherDisplay:10.37,2013-04-13 22:04:00,
2013-04-13 18:09:00,51.9,37.6,29.82,North,0,0.0,0.0,58,0.00,BKN,,0.03,40.0,WeatherDisplay:10.37,2013-04-13 22:09:00,
2013-04-13 18:14:00,51.8,38.3,29.82,North,0,0.0,0.0,60,0.00,BKN,,0.03,47.0,WeatherDisplay:10.37,2013-04-13 22:14:00,
2013-04-13 18:19:00,51.7,38.3,29.83,North,0,0.0,0.0,60,0.00,BKN,,0.03,40.0,WeatherDisplay:10.37,2013-04-13 22:19:00,
2013-04-13 18:24:00,51.6,37.7,29.83,North,0,0.0,0.0,59,0.00,BKN,,0.03,35.0,WeatherDisplay:10.37,2013-04-13 22:24:00,
2013-04-13 18:29:00,51.5,38.1,29.83,North,0,0.0,0.0,60,0.00,BKN,,0.03,25.0,WeatherDisplay:10.37,2013-04-13 22:29:00,
2013-04-13 18:34:00,51.4,37.5,29.84,North,0,0.0,0.0,59,0.00,BKN,,0.03,21.0,WeatherDisplay:10.37,2013-04-13 22:34:00,
2013-04-13 18:39:00,51.3,37.9,29.84,North,0,0.0,0.0,60,0.00,BKN,,0.03,19.0,WeatherDisplay:10.37,2013-04-13 22:39:00,
2013-04-13 18:44:00,51.2,37.8,29.84,North,0,0.0,0.0,60,0.00,BKN,,0.03,16.0,WeatherDisplay:10.37,2013-04-13 22:44:00,
2013-04-13 18:49:00,51.1,38.1,29.84,North,0,0.0,0.0,61,0.00,BKN,,0.03,11.0,WeatherDisplay:10.37,2013-04-13 22:49:00,
2013-04-13 18:54:00,51.0,37.6,29.84,North,0,0.0,0.0,60,0.00,BKN,,0.03,11.0,WeatherDisplay:10.37,2013-04-13 22:54:00,
2013-04-13 18:59:00,50.8,37.4,29.84,North,0,0.0,0.0,60,0.00,BKN,,0.03,9.0,WeatherDisplay:10.37,2013-04-13 22:59:00,
2013-04-13 19:04:00,50.7,37.3,29.84,North,0,0.0,0.0,60,0.00,BKN,,0.03,5.0,WeatherDisplay:10.37,2013-04-13 23:04:00,
2013-04-13 19:09:00,50.6,38.1,29.84,North,0,0.0,0.0,62,0.00,OVC,,0.03,0.0,WeatherDisplay:10.37,2013-04-13 23:09:00,
2013-04-13 19:14:00,50.5,37.5,29.84,North,0,0.0,0.0,61,0.00,OVC,,0.03,0.0,WeatherDisplay:10.37,2013-04-13 23:14:00,
2013-04-13 19:19:00,50.4,37.9,29.83,North,0,0.0,0.0,62,0.00,OVC,,0.03,0.0,WeatherDisplay:10.37,2013-04-13 23:19:00,
2013-04-13 19:24:00,50.3,37.8,29.83,North,0,0.0,0.0,62,0.00,OVC,,0.03,0.0,WeatherDisplay:10.37,2013-04-13 23:24:00,
2013-04-13 19:29:00,50.2,37.7,29.83,North,0,0.0,0.0,62,0.00,OVC,,0.03,0.0,WeatherDisplay:10.37,2013-04-13 23:29:00,
2013-04-13 19:34:00,50.1,38.0,29.84,North,0,0.0,0.0,63,0.00,OVC,,0.03,0.0,WeatherDisplay:10.37,2013-04-13 23:34:00,
2013-04-13 19:39:00,49.9,37.8,29.84,North,0,0.0,0.0,63,0.00,OVC,,0.03,0.0,WeatherDisplay:10.37,2013-04-13 23:39:00,
2013-04-13 19:44:00,49.8,38.1,29.84,North,0,0.0,0.0,64,0.00,OVC,,0.03,0.0,WeatherDisplay:10.37,2013-04-13 23:44:00,
2013-04-13 19:49:00,49.7,38.4,29.84,North,0,0.0,0.0,65,0.00,OVC,,0.03,0.0,WeatherDisplay:10.37,2013-04-13 23:49:00,
2013-04-13 19:54:00,49.5,38.2,29.85,North,0,0.0,0.0,65,0.00,OVC,,0.03,0.0,WeatherDisplay:10.37,2013-04-13 23:54:00,
2013-04-13 19:59:00,49.4,38.5,29.85,North,0,0.0,0.0,66,0.00,CLR,,0.03,0.0,WeatherDisplay:10.37,2013-04-13 23:59:00,
2013-04-13 20:04:00,49.3,38.4,29.85,North,0,0.0,0.0,66,0.00,CLR,,0.03,0.0,WeatherDisplay:10.37,2013-04-14 00:04:00,
2013-04-13 20:09:00,49.2,38.7,29.86,North,0,0.0,0.0,67,0.00,CLR,,0.03,0.0,WeatherDisplay:10.37,2013-04-14 00:09:00,
2013-04-13 20:14:00,49.0,38.9,29.86,North,0,0.0,0.0,68,0.00,CLR,,0.03,0.0,WeatherDisplay:10.37,2013-04-14 00:14:00,
2013-04-13 20:19:00,48.8,39.1,29.86,North,0,0.0,0.0,69,0.00,CLR,,0.03,0.0,WeatherDisplay:10.37,2013-04-14 00:19:00,
2013-04-13 20:24:00,48.7,39.0,29.86,North,0,0.0,0.0,69,0.00,CLR,,0.03,0.0,WeatherDisplay:10.37,2013-04-14 00:24:00,
2013-04-13 20:29:00,48.6,38.9,29.86,North,0,0.0,0.0,69,0.00,CLR,,0.03,0.0,WeatherDisplay:10.37,2013-04-14 00:29:00,
2013-04-13 20:34:00,48.4,38.7,29.87,North,0,0.0,0.0,69,0.00,CLR,,0.03,0.0,WeatherDisplay:10.37,2013-04-14 00:34:00,
2013-04-13 20:39:00,48.3,38.6,29.87,North,0,0.0,0.0,69,0.00,CLR,,0.03,0.0,WeatherDisplay:10.37,2013-04-14 00:39:00,
2013-04-13 20:44:00,48.2,38.5,29.87,North,0,0.0,0.0,69,0.00,CLR,,0.03,0.0,WeatherDisplay:10.37,2013-04-14 00:44:00,
2013-04-13 20:49:00,48.0,38.7,29.87,North,0,0.0,0.0,70,0.00,CLR,,0.03,0.0,WeatherDisplay:10.37,2013-04-14 00:49:00,
2013-04-13 20:54:00,47.9,38.6,29.87,North,0,0.0,0.0,70,0.00,CLR,,0.03,0.0,WeatherDisplay:10.37,2013-04-14 00:54:00,
2013-04-13 20:59:00,47.8,38.5,29.87,North,0,0.0,0.0,70,0.00,CLR,,0.03,0.0,WeatherDisplay:10.37,2013-04-14 00:59:00,
2013-04-13 21:04:00,47.7,38.8,29.87,North,0,0.0,0.0,71,0.00,CLR,,0.03,0.0,WeatherDisplay:10.37,2013-04-14 01:04:00,
2013-04-13 21:09:00,47.7,38.8,29.87,North,0,0.0,0.0,71,0.00,CLR,,0.03,0.0,WeatherDisplay:10.37,2013-04-14 01:09:00,
2013-04-13 21:14:00,47.6,38.7,29.87,North,0,0.0,0.0,71,0.00,CLR,,0.03,0.0,WeatherDisplay:10.37,2013-04-14 01:14:00,
2013-04-13 21:19:00,47.5,38.9,29.87,North,0,0.0,0.0,72,0.00,CLR,,0.03,0.0,WeatherDisplay:10.37,2013-04-14 01:19:00,
2013-04-13 21:24:00,47.4,39.2,29.87,North,0,0.0,0.0,73,0.00,CLR,,0.03,0.0,WeatherDisplay:10.37,2013-04-14 01:24:00,
2013-04-13 21:29:00,47.3,39.1,29.87,North,0,0.0,0.0,73,0.00,CLR,,0.03,0.0,WeatherDisplay:10.37,2013-04-14 01:29:00,
2013-04-13 21:34:00,47.2,39.0,29.87,North,0,0.0,0.0,73,0.00,CLR,,0.03,0.0,WeatherDisplay:10.37,2013-04-14 01:34:00,
2013-04-13 21:39:00,47.2,39.0,29.87,North,0,0.0,0.0,73,0.00,CLR,,0.03,0.0,WeatherDisplay:10.37,2013-04-14 01:39:00,
2013-04-13 21:44:00,47.1,38.9,29.88,North,0,0.0,0.0,73,0.00,CLR,,0.03,0.0,WeatherDisplay:10.37,2013-04-14 01:44:00,
2013-04-13 21:49:00,47.0,38.8,29.88,North,0,0.0,0.0,73,0.00,CLR,,0.03,0.0,WeatherDisplay:10.37,2013-04-14 01:49:00,
2013-04-13 21:54:00,46.9,39.0,29.88,North,0,0.0,0.0,74,0.00,CLR,,0.03,0.0,WeatherDisplay:10.37,2013-04-14 01:54:00,
2013-04-13 21:59:00,46.8,38.9,29.89,North,0,0.0,0.0,74,0.00,CLR,,0.03,0.0,WeatherDisplay:10.37,2013-04-14 01:59:00,
2013-04-13 22:04:00,46.7,38.9,29.89,North,0,0.0,0.0,74,0.00,CLR,,0.03,0.0,WeatherDisplay:10.37,2013-04-14 02:04:00,
2013-04-13 22:09:00,46.6,38.8,29.89,North,0,0.0,0.0,74,0.00,CLR,,0.03,0.0,WeatherDisplay:10.37,2013-04-14 02:09:00,
2013-04-13 22:14:00,46.6,39.1,29.89,North,0,0.0,0.0,75,0.00,CLR,,0.03,0.0,WeatherDisplay:10.37,2013-04-14 02:14:00,
2013-04-13 22:19:00,46.5,39.0,29.89,North,0,0.0,0.0,75,0.00,CLR,,0.03,0.0,WeatherDisplay:10.37,2013-04-14 02:19:00,
2013-04-13 22:24:00,46.4,39.2,29.89,North,0,0.0,0.0,76,0.00,CLR,,0.03,0.0,WeatherDisplay:10.37,2013-04-14 02:24:00,
2013-04-13 22:29:00,46.3,39.1,29.89,North,0,0.0,0.0,76,0.00,CLR,,0.03,0.0,WeatherDisplay:10.37,2013-04-14 02:29:00,
2013-04-13 22:34:00,46.2,39.1,29.89,North,0,0.0,0.0,76,0.00,CLR,,0.03,0.0,WeatherDisplay:10.37,2013-04-14 02:34:00,
2013-04-13 22:39:00,46.1,39.0,29.89,North,0,0.0,0.0,76,0.00,CLR,,0.03,0.0,WeatherDisplay:10.37,2013-04-14 02:39:00,
2013-04-13 22:44:00,46.0,38.9,29.89,North,0,0.0,0.0,76,0.00,CLR,,0.03,0.0,WeatherDisplay:10.37,2013-04-14 02:44:00,
2013-04-13 22:49:00,45.9,38.8,29.89,North,0,0.0,0.0,76,0.00,CLR,,0.03,0.0,WeatherDisplay:10.37,2013-04-14 02:49:00,
2013-04-13 22:54:00,45.8,38.7,29.89,North,0,0.0,0.0,76,0.00,CLR,,0.03,0.0,WeatherDisplay:10.37,2013-04-14 02:54:00,
2013-04-13 22:59:00,45.8,39.0,29.89,North,0,0.0,0.0,77,0.00,CLR,,0.03,0.0,WeatherDisplay:10.37,2013-04-14 02:59:00,
2013-04-13 23:04:00,45.7,38.9,29.89,North,0,0.0,0.0,77,0.00,CLR,,0.03,0.0,WeatherDisplay:10.37,2013-04-14 03:04:00,
2013-04-13 23:09:00,45.7,38.9,29.90,North,0,0.0,0.0,77,0.00,CLR,,0.03,0.0,WeatherDisplay:10.37,2013-04-14 03:09:00,
2013-04-13 23:14:00,45.6,39.1,29.90,North,0,0.0,0.0,78,0.00,CLR,,0.03,0.0,WeatherDisplay:10.37,2013-04-14 03:14:00,
2013-04-13 23:19:00,45.5,39.0,29.90,North,0,0.0,0.0,78,0.00,CLR,,0.03,0.0,WeatherDisplay:10.37,2013-04-14 03:19:00,
2013-04-13 23:24:00,45.4,38.9,29.89,North,0,0.0,0.0,78,0.00,CLR,,0.03,0.0,WeatherDisplay:10.37,2013-04-14 03:24:00,
2013-04-13 23:29:00,45.4,38.9,29.90,North,0,0.0,0.0,78,0.00,CLR,,0.03,0.0,WeatherDisplay:10.37,2013-04-14 03:29:00,
2013-04-13 23:34:00,45.3,38.8,29.90,North,0,0.0,0.0,78,0.00,CLR,,0.03,0.0,WeatherDisplay:10.37,2013-04-14 03:34:00,
2013-04-13 23:39:00,45.2,38.7,29.90,North,0,0.0,0.0,78,0.00,CLR,,0.03,0.0,WeatherDisplay:10.37,2013-04-14 03:39:00,
2013-04-13 23:44:00,45.2,38.7,29.89,North,0,0.0,0.0,78,0.00,CLR,,0.03,0.0,WeatherDisplay:10.37,2013-04-14 03:44:00,
2013-04-13 23:49:00,45.1,38.6,29.90,North,0,0.0,0.0,78,0.00,CLR,,0.03,0.0,WeatherDisplay:10.37,2013-04-14 03:49:00,
2013-04-13 23:54:00,45.1,38.6,29.90,North,0,0.0,0.0,78,0.00,CLR,,0.03,0.0,WeatherDisplay:10.37,2013-04-14 03:54:00,
2013-04-13 23:59:00,45.0,38.6,29.90,North,0,0.0,0.0,78,0.00,CLR,,0.03,0.0,WeatherDisplay:10.37,2013-04-14 03:59:00,